This demonstration page uses our WeatherBlox Daily Observations layout. Learn more.

Left ArrowRight Arrow

Hourly Observations for August 16, 2017

Temp ( °F °C ) Dew Point ( °F °C ) Humidity (%) Winds ( mph kmh ) Pressure ( in mb ) Visibility ( mi km ) Precip ( " mm )
12:51 am 00:51 Clear 77 25 47 8.3 35 35 NNW 10 17 29.76 1008 10 16.0934 0 0
1:51 am 01:51 Clear 78 25.6 45 7.2 31 31 N 8 13 29.76 1008 10 16.0934 0 0
2:51 am 02:51 Clear 78 25.6 44 6.7 30 30 NW 7 11 29.78 1008 10 16.0934 0 0.0254
3:51 am 03:51 Clear 74 23.3 44 6.7 34 34 NNW 6 9 29.79 1009 10 16.0934 0 0
4:51 am 04:51 Clear 67 19.4 49 9.4 53 53 Calm 29.82 1010 10 16.0934 0 0
5:51 am 05:51 Sunny 66 18.9 51 10.6 59 59 SSE 3 6 29.85 1011 10 16.0934 0 0
6:51 am 06:51 Sunny 72 22.2 53 11.7 52 52 NE 5 7 29.87 1012 10 16.0934 0 0
7:51 am 07:51 Sunny 79 26.1 47 8.3 32 32 Calm 29.88 1012 10 16.0934 0 0
8:51 am 08:51 Sunny 81 27.2 52 11.1 37 37 W 8 13 29.89 1012 10 16.0934 0 0
9:51 am 09:51 Sunny 84 28.9 48 8.9 29 29 VRB 6 9 29.9 1012 10 16.0934 0 0
10:51 am 10:51 Sunny 86 30 46 7.8 25 25 SW 7 11 29.89 1012 10 16.0934 0 0
11:51 am 11:51 Sunny 87 30.6 44 6.7 22 22 WSW 3 6 29.88 1012 10 16.0934 0 0
12:51 pm 12:51 Sunny 91 32.8 42 5.6 18 18 SE 6 9 29.84 1011 10 16.0934 0 0
1:51 pm 13:51 Sunny 93 33.9 42 5.6 17 17 S 8 13 29.82 1010 10 16.0934 0 0
2:51 pm 14:51 Sunny 93 33.9 42 5.6 17 17 undefined N/A 29.79 1009 10 16.0934 0 0
3:51 pm 15:51 Sunny 93 33.9 42 5.6 17 17 VRB 3 6 29.78 1009 10 16.0934 0 0
4:51 pm 16:51 Sunny 93 33.9 38 3.3 14 14 VRB 3 6 29.78 1009 10 16.0934 0 0
5:51 pm 17:51 Sunny 92 33.3 38 3.3 15 15 W 8 13 29.78 1009 10 16.0934 0 0
6:51 pm 18:51 Sunny 88 31.1 39 3.9 18 18 W 9 15 29.78 1009 10 16.0934 0 0
7:51 pm 19:51 Clear 82 27.8 43 6.1 25 25 NW 8 13 29.8 1009 10 16.0934 0 0
8:51 pm 20:51 Clear 83 28.3 43 6.1 24 24 NNW 9 15 29.82 1010 10 16.0934 0 0
9:51 pm 21:51 Clear 78 25.6 44 6.7 30 30 NNW 7 11 29.83 1010 10 16.0934 0 0
10:51 pm 22:51 Clear 76 24.4 44 6.7 32 32 VRB 6 9 29.84 1011 10 16.0934 0 0
11:51 pm 23:51 Clear 72 22.2 48 8.9 43 43 Calm 29.85 1011 10 16.0934 0 0

Powered by AerisWeather